Theta_e
339 344 345 347 347 350 352 354 354 359 357 355 353 353 356 358 362 364 369 367 367 366 366 359 361 360 360 363 360 360 352 358 357 355 352 353 351 350 352 350 350 350 352
337 342 344 346 346 348 351 354 356 360 359 355 354 354 355 359 360 361 367 367 366 366 362 365 360 363 357 362 361 363 353 352 362 356 350 344 347 349 351 350 349 351 352
335 339 342 344 346 347 350 353 357 361 362 361 356 356 359 365 358 358 363 363 364 364 366 366 365 363 363 357 364 359 357 355 354 357 356 347 344 351 357 353 356 358 363
336 339 340 342 344 347 350 353 357 360 363 363 363 367 354 352 356 357 360 360 361 365 364 367 366 365 362 359 359 361 362 360 354 351 352 353 350 346 345 357 355 356 356
335 337 339 342 343 346 347 351 356 361 365 366 370 358 360 353 354 355 369 367 370 368 366 367 368 364 359 363 365 366 362 357 355 349 353 352 355 353 344 346 345 352 352
336 338 340 342 342 344 346 348 355 366 367 367 364 365 364 360 357 356 357 357 360 363 368 368 372 366 365 363 362 364 365 361 359 357 360 352 347 346 346 344 346 346 349
336 336 338 339 341 342 345 347 360 363 366 364 363 364 363 363 363 362 355 351 357 355 368 372 373 366 368 367 366 365 365 363 358 360 353 351 352 349 345 344 346 344 343
339 337 338 338 340 342 345 347 356 361 361 362 365 371 367 359 358 359 356 357 361 358 373 370 372 367 367 366 368 362 360 363 360 361 364 356 352 354 349 348 345 341 343
339 338 338 338 340 342 345 348 354 360 361 360 368 368 367 366 360 370 361 356 362 358 372 366 370 367 367 367 370 363 363 362 364 362 363 358 356 357 358 354 354 349 338
340 340 339 339 340 342 345 349 356 360 360 358 360 361 364 367 365 362 363 369 364 362 349 365 365 369 373 372 371 365 370 365 361 359 365 362 359 360 356 352 349 348 348
340 340 340 341 340 342 345 348 354 357 357 357 360 363 362 362 363 361 364 366 365 368 366 370 366 364 367 367 369 368 366 366 367 364 362 362 366 356 353 356 356 352 352
340 341 341 340 339 343 345 350 352 355 358 359 365 360 362 363 359 360 361 363 366 366 366 366 365 365 366 367 366 363 364 365 364 364 365 363 359 364 366 360 361 357 359
340 340 340 338 339 343 355 358 356 356 357 354 356 359 361 360 359 361 363 363 368 368 367 368 368 366 365 364 364 366 365 362 361 361 364 363 362 360 358 359 358 353 352
340 340 338 338 340 347 364 364 361 359 360 358 356 362 366 365 364 367 369 364 371 372 373 370 370 368 367 371 367 364 364 364 362 361 361 361 359 358 361 356 357 357 353
338 339 337 339 344 354 363 366 365 367 368 364 367 370 373 374 377 375 374 377 378 373 373 374 370 368 367 362 369 363 361 362 360 360 359 360 355 349 349 352 357 358 355
338 339 344 348 346 350 360 366 367 371 365 362 367 376 377 376 376 379 378 380 376 374 374 376 373 370 360 345 347 353 360 360 359 357 359 359 356 351 343 342 342 343 351
340 345 345 343 345 350 363 365 369 368 365 364 370 374 375 376 378 377 376 374 374 374 370 370 369 367 357 339 343 348 360 357 359 355 353 351 354 354 356 344 340 340 339
341 350 345 344 348 351 357 368 366 367 368 368 371 374 370 369 373 376 374 377 375 375 375 372 372 367 347 332 339 345 357 358 356 356 353 352 350 343 344 350 353 352 351
344 346 347 346 354 356 365 367 363 366 363 362 367 371 371 372 373 373 375 376 373 373 373 372 370 365 350 331 333 340 354 352 353 354 350 347 345 330 329 346 350 351 351
345 347 347 347 349 355 359 361 360 361 363 365 367 371 373 375 375 378 378 375 373 366 364 363 365 347 349 323 324 335 346 348 343 353 342 329 333 324 324 342 345 343 346
345 348 348 346 351 356 359 358 356 355 358 359 367 372 377 379 380 378 376 375 372 370 369 364 360 358 348 331 319 321 347 340 340 338 339 334 323 320 322 323 338 337 337
345 348 348 348 353 359 363 356 357 361 365 366 371 377 380 372 370 376 375 375 373 370 364 359 355 349 341 324 318 319 321 324 338 334 332 330 318 317 321 327 323 325 329
344 348 349 350 352 358 360 356 363 366 371 372 376 376 377 375 373 375 373 366 369 357 357 352 348 345 338 331 319 319 321 322 332 331 323 319 318 317 323 323 323 327 332
343 347 349 349 352 362 360 363 368 371 373 373 372 373 374 372 372 365 363 358 354 351 349 349 347 346 343 341 339 336 332 324 326 325 331 327 326 323 326 328 327 327 327
350 350 350 351 356 359 362 362 364 367 366 371 368 371 367 366 359 335 337 349 329 326 348 349 348 345 342 330 314 317 331 330 321 323 332 329 326 324 324 326 326 325 324
360 356 355 354 354 357 360 365 367 370 369 367 368 362 360 359 346 338 327 307 307 306 308 312 331 323 312 303 302 305 305 306 307 325 327 324 322 321 321 321 321 322 321
Wind_Speed
18 18 16 16 15 15 14 13 12 10 8 7 8 8 4 3 3 4 5 5 7 8 6 5 6 4 5 3 3 3 4 4 4 3 3 3 4 6 4 2 3 7 6
20 19 19 18 17 16 16 15 12 11 10 9 7 6 8 2 4 5 6 6 5 5 8 8 6 7 5 5 5 5 3 2 4 3 4 3 5 8 9 8 10 13 11
21 22 21 19 18 18 16 15 14 13 12 10 6 4 2 2 6 5 6 5 6 8 7 5 3 5 7 5 4 6 2 4 3 1 2 2 1 5 5 9 7 6 6
22 22 22 21 20 18 17 16 15 13 12 10 8 8 7 8 5 7 7 7 8 7 6 5 4 5 2 8 7 8 4 2 2 3 2 5 3 1 3 5 8 9 10
22 22 22 22 20 18 17 17 16 14 11 12 8 8 9 6 6 7 9 5 9 7 7 6 6 5 7 3 4 5 3 4 5 3 0 1 3 2 2 2 3 8 8
21 22 21 22 18 18 17 17 16 13 13 12 12 10 9 7 5 6 6 9 8 9 7 5 5 5 6 2 4 3 5 6 4 6 2 4 3 5 6 3 4 4 3
21 21 21 19 19 19 18 15 16 14 14 15 14 12 9 9 7 7 6 11 5 4 12 8 7 7 4 5 5 5 5 4 5 3 7 5 5 4 5 6 3 4 5
20 21 20 18 19 18 17 15 18 16 17 16 14 11 12 9 9 10 8 11 1 8 14 7 7 5 5 5 4 6 6 5 5 5 5 9 5 5 4 4 3 4 4
22 22 22 20 20 17 16 16 17 16 17 17 13 13 12 11 9 9 8 8 6 6 12 7 2 5 5 5 5 6 5 3 6 6 7 7 6 5 4 3 3 2 6
23 21 21 21 18 18 17 19 18 17 17 17 14 13 13 11 9 6 7 8 7 16 9 5 6 5 6 7 6 4 7 5 6 6 6 5 6 4 5 7 6 5 4
22 21 19 19 19 19 19 19 18 17 16 15 14 13 13 13 11 10 8 8 4 4 4 5 4 4 5 6 5 6 4 6 6 7 6 7 6 6 7 4 5 5 3
21 20 20 20 21 21 20 19 17 17 16 15 15 15 13 12 13 11 10 9 6 6 6 5 3 3 4 4 5 6 7 4 6 5 7 8 7 7 7 7 7 7 6
21 20 20 20 20 20 15 15 16 17 17 11 16 16 14 14 13 12 10 9 7 7 6 5 3 3 4 4 6 5 4 4 5 6 5 7 8 7 7 7 6 8 7
20 21 20 20 19 18 14 15 17 19 13 13 16 14 14 13 12 10 10 10 7 7 7 5 6 6 5 7 4 1 3 3 3 0 4 5 6 6 4 7 8 8 6
22 21 20 19 17 17 17 16 16 13 12 9 11 12 12 11 10 10 9 9 9 9 8 8 7 7 5 4 6 4 3 1 3 4 4 6 3 4 5 7 6 7 5
22 21 18 18 20 20 18 16 15 13 11 10 11 10 11 11 10 10 10 9 10 9 8 7 7 6 7 8 8 2 1 2 4 6 9 8 7 6 5 6 7 7 8
20 20 20 20 21 19 17 18 16 14 13 11 10 11 12 11 11 11 10 10 11 10 8 8 9 7 7 7 4 2 1 4 6 4 4 7 6 9 7 8 8 9 8
21 17 19 20 20 20 20 15 16 14 13 12 12 12 12 11 11 12 12 10 10 9 9 8 7 10 5 3 3 4 1 3 1 4 5 6 5 9 10 10 8 7 8
19 18 19 19 16 17 16 15 16 15 14 13 12 12 12 12 12 13 13 12 11 9 8 8 9 10 6 5 1 3 8 4 3 6 4 5 6 9 9 8 8 7 5
15 17 18 17 19 18 19 18 17 16 16 15 15 15 13 12 13 13 12 11 10 11 11 10 9 10 8 9 9 7 4 3 4 9 10 11 7 6 8 8 7 7 5
12 13 15 16 18 18 20 19 19 19 18 17 16 15 14 13 12 11 11 11 11 10 9 10 8 8 8 7 7 10 5 5 5 6 1 9 8 7 8 6 6 7 8
8 12 12 14 18 18 19 18 17 16 15 17 17 16 14 13 11 13 11 10 10 10 9 10 9 7 7 5 6 9 8 3 4 4 6 5 5 3 6 6 8 9 9
8 10 10 12 15 17 17 19 17 17 15 16 15 15 15 13 13 13 12 10 10 10 10 9 8 7 7 6 4 7 5 4 1 5 3 3 8 8 5 9 9 11 7
9 10 11 11 13 12 12 9 11 12 14 14 14 13 14 14 14 12 12 10 10 10 9 9 8 8 7 7 7 6 6 5 5 6 5 4 3 4 5 6 8 7 6
8 8 9 9 11 12 12 13 11 11 13 14 16 14 12 14 10 10 5 7 9 3 7 9 8 8 7 6 7 5 3 3 4 5 3 2 3 3 4 4 7 6 7
6 7 8 10 12 13 13 13 11 11 13 15 12 14 13 14 12 11 12 19 11 11 18 19 11 10 15 13 7 5 4 4 5 5 2 3 3 3 4 5 6 6 6
Wind_Direction
186 173 183 178 173 169 174 186 187 167 180 204 193 203 189 184 176 174 125 184 169 203 214 204 180 211 262 88 177 150 188 205 173 170 150 191 169 210 198 179 213 244 248
185 187 186 179 181 178 175 181 193 168 203 191 214 209 196 148 97 215 166 223 189 186 223 268 183 193 182 223 189 206 201 132 185 186 166 166 196 206 199 204 213 225 220
198 189 187 189 188 181 182 183 188 177 195 235 196 191 198 156 208 196 176 188 191 214 234 193 338 192 247 169 181 196 204 264 163 231 168 158 64 155 200 211 220 214 214
198 191 189 193 190 185 185 185 186 189 190 204 182 183 204 203 196 206 148 156 211 209 190 193 228 227 305 219 166 213 218 138 212 190 203 15 52 213 152 208 205 211 203
193 201 194 188 196 186 187 185 183 187 191 188 226 176 236 194 185 240 123 211 175 204 193 190 200 224 255 123 248 112 253 177 277 181 267 36 276 212 130 3 144 193 211
194 197 198 185 195 188 191 184 174 182 193 189 203 197 194 250 213 204 173 193 187 171 187 165 213 208 242 143 209 207 215 265 316 322 65 205 224 205 252 130 204 186 228
189 194 198 194 184 190 187 185 162 181 188 189 194 194 207 218 238 231 212 24 273 207 143 163 190 187 208 192 214 207 226 225 259 247 297 286 265 312 310 312 193 196 202
191 190 195 195 181 187 184 185 162 181 187 187 193 194 197 202 219 219 252 186 278 201 131 150 161 177 182 220 198 211 235 198 228 248 270 295 300 312 267 279 342 330 247
196 188 185 192 183 184 180 186 169 181 186 189 191 191 195 225 217 244 216 232 212 43 113 139 181 157 190 212 187 245 204 261 211 239 226 242 292 332 318 291 285 263 306
190 189 186 188 180 178 178 184 170 181 188 189 190 193 195 205 234 218 250 291 21 110 228 179 179 185 172 208 214 240 179 219 251 236 208 259 275 280 302 280 275 278 252
184 190 189 183 176 177 175 177 175 180 186 195 186 189 199 195 206 217 213 238 197 85 172 201 208 187 194 206 214 274 257 218 242 266 278 251 256 276 283 286 289 311 319
179 187 185 179 181 181 180 178 180 182 188 187 174 187 192 200 195 217 204 210 223 189 182 200 194 206 205 216 227 252 299 253 276 269 282 273 266 250 241 266 298 292 302
176 186 181 179 190 176 171 168 177 188 190 193 180 179 188 194 207 197 217 224 197 214 186 218 202 224 230 222 244 258 280 326 295 285 247 267 267 281 275 279 269 252 246
176 187 183 181 190 169 156 159 185 195 188 176 203 183 179 191 196 204 192 211 199 197 211 195 217 217 221 207 250 243 237 239 226 331 312 294 291 282 286 275 273 276 292
179 188 191 181 183 162 158 172 192 193 175 192 194 178 177 182 184 196 199 197 191 194 206 196 196 217 204 196 173 157 170 296 324 304 264 252 359 11 326 303 319 323 258
189 191 199 175 178 171 169 180 189 179 171 189 191 171 170 176 181 190 193 190 188 193 188 190 194 216 82 72 65 349 160 318 302 328 338 326 222 216 239 255 274 291 290
202 190 195 186 184 181 171 182 184 178 176 177 182 173 175 178 183 186 184 188 194 181 183 176 186 141 102 69 124 152 281 346 6 356 312 305 9 12 333 223 241 254 244
199 191 194 202 182 192 181 177 180 181 175 178 179 172 171 176 184 183 182 183 190 174 169 178 168 123 95 102 133 185 137 126 32 31 23 31 6 26 346 317 279 250 246
195 193 196 204 177 184 166 176 179 177 174 176 178 175 183 184 181 185 183 179 181 162 153 179 156 138 108 88 88 265 222 96 137 112 71 23 13 13 347 306 307 318 285
192 190 188 205 171 177 166 172 174 178 176 176 175 175 183 187 180 182 173 183 173 164 175 154 158 116 118 46 26 354 345 103 315 176 125 74 53 11 336 320 330 300 4
176 183 192 196 164 173 164 174 178 180 181 175 171 174 175 177 179 174 175 173 183 149 144 140 137 136 115 79 43 26 80 8 321 339 1 83 44 14 340 319 10 338 317
170 186 190 186 161 171 159 179 178 172 175 168 169 166 168 172 161 176 171 174 154 139 140 145 152 123 121 104 83 76 75 28 325 340 27 45 2 313 319 345 352 324 282
170 185 177 176 167 167 169 183 168 162 164 167 165 163 163 172 154 160 163 158 158 157 166 172 162 148 149 137 144 114 97 68 277 40 98 241 278 266 215 67 24 11 3
160 164 167 173 165 154 169 166 163 164 161 164 159 165 170 152 153 163 163 163 181 175 180 181 176 158 167 159 162 165 185 173 198 159 191 110 69 122 83 70 28 30 2
137 141 161 168 154 151 157 137 159 168 173 165 167 167 155 162 131 66 25 144 65 354 202 185 177 164 178 96 65 16 32 356 55 316 162 99 60 68 48 52 52 44 31
126 137 147 151 152 152 152 150 163 172 177 169 171 174 161 151 136 137 94 47 58 60 60 56 91 69 85 110 98 68 46 2 343 233 148 111 75 57 48 42 51 52 39